GFSCGP_con_mucape_276.txt.gz
CAPE
0 0 0 0 0 0 0 0 0 0 0 0 0 0 0 71 526 477 432 576 723 754 720 610 579 458 256 111 78 100 70 8 16 73 105 207 301 381 0 0 0 0 0 0
0 0 0 0 0 0 0 0 0 0 0 0 0 0 0 0 110 291 379 529 658 751 781 747 664 463 244 108 96 100 86 72 36 126 284 281 313 1 0 0 0 0 0 0
0 0 0 0 0 0 0 0 0 0 0 0 0 0 0 0 22 80 163 397 410 539 631 672 556 327 261 106 77 80 52 35 136 351 335 189 24 0 0 0 0 0 0 0
0 0 0 0 0 0 0 0 0 0 0 0 0 0 0 0 0 25 86 150 178 218 272 342 335 266 229 96 68 98 216 160 240 255 139 36 0 0 0 0 0 0 0 0
0 0 0 0 0 0 0 0 0 0 0 0 0 0 0 0 0 7 73 124 138 183 304 357 318 257 228 98 55 124 213 191 245 156 37 0 0 0 0 0 0 0 0 0
0 0 0 0 0 0 0 0 0 0 0 0 0 0 0 0 0 0 0 17 88 207 335 358 288 240 241 166 64 228 269 308 119 6 0 0 0 0 0 0 0 0 0 0
0 0 0 0 0 0 0 0 0 0 0 0 0 0 0 0 0 0 0 0 37 206 310 322 298 191 108 83 72 156 310 115 0 0 0 0 0 0 0 0 0 0 0 0
0 0 0 0 0 0 0 0 0 0 0 0 0 0 0 0 0 0 0 0 1 119 240 254 167 93 97 152 201 121 39 0 0 0 0 0 0 0 0 0 0 0 0 0
0 0 0 0 0 0 0 0 0 0 0 0 0 0 0 0 0 0 0 0 13 88 132 168 162 100 120 99 78 60 0 0 0 0 0 0 0 0 0 0 0 0 0 0
0 0 0 0 0 0 0 0 0 0 0 0 0 0 0 0 0 0 0 0 8 50 56 98 77 109 116 24 0 0 0 0 0 0 0 0 0 0 0 0 0 0 0 0
0 5 0 0 0 0 0 0 0 0 0 0 0 0 0 0 0 0 0 0 1 5 21 47 82 65 5 0 0 0 0 0 0 0 0 0 0 0 0 0 0 0 0 0
0 0 0 0 0 0 0 0 0 0 0 0 0 0 0 0 0 0 1 1 7 4 0 0 16 28 0 0 0 0 0 0 0 0 0 0 0 0 0 0 0 0 0 0
0 0 0 0 0 0 0 0 0 0 0 0 0 0 0 0 0 0 0 0 0 0 0 0 0 0 0 1 1 0 0 0 0 0 0 0 0 0 0 0 0 0 0 0
0 0 0 0 0 0 0 0 0 0 0 0 0 0 0 0 0 0 0 0 0 0 0 0 0 0 5 16 0 0 0 0 0 0 0 0 0 0 0 0 0 0 0 0
10 3 3 0 0 0 0 0 0 0 0 0 0 0 0 0 0 0 0 0 0 0 1 0 1 13 14 4 2 0 2 24 27 1 1 0 0 0 0 0 0 0 6 10
4 1 1 0 0 11 0 0 0 0 0 0 0 0 0 0 0 0 0 1 10 0 0 5 25 20 9 2 10 5 4 60 35 26 25 2 0 0 0 0 0 2 14 10
17 1 7 0 0 0 0 0 0 0 0 0 0 0 0 2 3 2 2 3 8 0 5 44 71 41 40 34 32 38 58 65 94 117 95 1 0 0 0 0 0 6 8 0
42 33 2 0 0 0 0 0 0 0 0 0 0 1 9 10 4 1 10 13 8 13 21 28 90 68 50 86 100 72 104 78 112 140 103 2 0 0 0 0 3 3 1 7
69 31 0 0 0 0 0 0 4 0 0 0 11 28 24 14 17 11 1 5 19 14 7 90 101 133 126 131 108 158 157 144 171 160 27 0 0 0 0 2 7 6 10 0
59 39 32 46 47 29 15 1 0 1 10 32 62 21 40 49 13 0 0 0 10 34 99 134 154 117 16 19 83 172 128 148 122 7 0 0 0 0 5 17 12 0 0 0
61 64 68 52 34 29 54 11 18 48 21 15 42 58 64 61 28 17 14 33 76 115 91 20 2 0 0 0 25 54 94 84 38 0 0 0 0 6 11 3 0 0 3 30
3 3 16 12 39 33 57 40 85 46 4 12 30 44 54 42 31 17 2 4 7 3 0 0 0 0 0 3 12 41 76 30 0 0 0 0 10 14 0 0 0 4 9 8
0 0 6 3 10 21 43 82 44 21 31 42 61 42 53 58 49 61 42 1 0 0 0 0 0 0 0 6 17 16 9 0 0 0 0 3 18 0 0 0 0 9 8 9
0 45 77 49 52 76 80 31 20 55 74 76 83 100 128 164 68 0 0 0 0 0 0 0 0 0 0 6 11 0 0 0 0 0 0 9 0 0 0 0 0 1 12 0
0 0 0 8 128 174 183 140 178 163 154 162 142 144 17 0 0 0 0 0 0 0 0 0 0 0 0 1 0 0 0 0 0 0 0 3 0 0 0 0 0 0 5 12
0 0 0 0 42 201 197 257 253 250 164 78 2 0 0 0 0 0 0 0 0 0 0 0 0 0 0 0 4 0 0 0 0 0 2 0 0 0 0 0 0 0 0 7

GFSCGP_con_mucape_279.txt.gz
CAPE
0 0 0 0 0 0 0 0 0 0 0 0 0 0 0 27 406 588 762 808 903 870 819 663 615 574 381 343 250 312 290 216 281 200 158 236 294 210 150 16 0 0 0 0
0 0 0 0 0 0 0 0 0 0 0 0 0 0 0 18 222 375 540 573 804 823 741 782 783 716 504 431 271 195 315 329 378 475 338 265 243 148 41 1 0 0 0 0
0 0 0 0 0 0 0 0 0 0 0 0 0 0 0 0 121 263 336 419 473 604 709 698 810 754 592 403 281 339 464 547 581 410 127 230 118 81 17 0 0 0 0 0
0 0 0 0 0 0 0 0 0 0 0 0 0 0 0 0 24 131 308 479 577 561 513 419 453 595 586 447 266 427 668 623 440 249 276 254 94 19 0 0 0 0 0 0
0 0 0 0 0 0 0 0 0 0 0 0 0 0 0 0 17 55 187 307 445 555 503 485 394 341 373 314 304 484 623 385 289 300 308 111 0 0 0 0 0 0 0 0
0 0 0 0 0 0 0 0 0 0 0 0 0 0 0 0 2 8 12 32 179 423 474 498 394 366 408 355 327 496 605 499 349 329 55 0 0 0 0 0 0 0 0 3
0 0 0 0 0 0 0 0 0 0 0 0 0 0 0 0 0 0 0 5 53 76 353 571 601 608 576 420 341 333 311 359 288 13 0 0 0 0 0 0 0 0 2 5
0 0 0 0 0 0 0 0 0 0 0 0 0 0 0 0 0 0 0 0 32 194 367 558 586 526 269 254 218 267 288 183 12 0 0 0 0 0 0 0 0 0 3 6
0 0 0 0 0 0 0 0 0 0 0 0 0 0 0 0 0 0 0 6 143 310 433 466 449 304 103 142 152 106 105 13 0 0 0 0 0 0 0 0 0 0 12 9
10 9 0 0 0 0 0 0 0 0 0 0 0 0 0 0 0 0 0 0 91 176 187 214 215 166 122 140 62 0 0 0 0 0 0 0 0 0 0 0 0 14 9 28
0 108 3 0 0 0 0 0 0 0 0 0 0 0 0 0 0 0 0 0 5 6 8 21 63 40 58 8 0 2 0 0 0 0 0 0 0 0 0 0 0 6 26 56
0 31 16 0 0 0 0 0 0 0 0 0 0 0 0 0 0 0 0 0 0 1 1 0 0 0 33 0 5 0 0 0 0 1 12 6 0 0 0 0 0 12 46 0
4 24 47 2 0 0 0 0 0 0 0 0 0 0 0 0 0 0 0 0 0 0 0 0 0 0 0 3 0 0 0 0 0 24 37 39 31 7 0 0 0 38 0 0
31 0 96 37 13 6 6 0 0 0 0 0 0 0 0 0 0 0 0 0 0 0 0 0 0 0 3 10 2 0 1 4 16 25 55 56 42 32 0 0 26 30 0 5
194 188 6 22 33 27 4 0 0 0 0 0 0 0 0 0 0 0 0 0 0 0 1 0 0 0 31 29 17 9 25 29 31 56 39 60 91 26 2 7 47 0 3 1
44 95 14 25 22 23 3 0 0 0 0 0 0 0 0 0 0 0 0 0 0 0 1 0 0 5 7 41 26 8 53 112 56 58 63 67 25 0 0 33 0 0 0 0
43 39 21 18 0 0 0 0 0 0 5 1 0 0 0 2 7 0 0 0 0 0 0 0 0 4 42 39 65 60 61 81 89 56 38 21 0 0 20 0 1 7 2 0
16 21 11 20 1 6 0 0 0 4 68 28 13 0 9 13 1 0 0 0 0 0 0 0 9 61 89 24 1 0 1 52 49 53 42 0 0 0 1 2 4 3 0 0
47 71 49 148 57 19 45 23 75 121 109 73 81 25 11 7 24 25 0 3 0 0 13 28 38 18 0 0 0 0 0 0 30 45 0 0 0 2 4 2 1 0 4 2
70 77 190 49 169 72 138 0 1 0 146 4 163 110 79 39 128 126 19 11 14 0 5 5 0 0 0 0 0 4 10 14 30 0 0 0 3 20 13 2 0 6 8 29
95 74 216 70 151 49 51 19 26 180 347 7 117 200 100 154 55 3 0 4 0 0 0 0 0 0 0 0 0 7 7 1 0 0 0 0 15 3 0 0 8 14 29 1
44 89 168 22 86 16 0 10 157 328 57 162 120 191 155 36 16 22 41 8 0 0 0 0 0 0 0 0 0 1 2 0 0 0 0 2 0 0 0 0 0 2 0 0
8 39 116 228 89 63 15 60 62 128 264 215 101 43 34 69 95 32 0 0 0 0 0 0 0 0 0 0 0 0 0 0 0 0 0 0 0 0 0 0 0 6 0 15
0 0 148 141 143 58 95 129 143 177 139 83 65 106 145 71 0 0 0 0 0 0 0 0 0 0 0 0 0 0 0 0 0 0 0 0 0 0 0 0 0 0 0 34
0 36 90 81 63 84 181 244 247 144 164 145 166 114 11 0 0 0 0 0 0 0 0 0 0 0 0 0 0 0 0 0 0 0 0 0 0 0 0 0 0 0 0 0
0 5 20 0 233 387 359 317 178 119 172 119 11 0 0 0 0 0 0 0 0 0 0 0 0 0 0 0 0 0 0 0 0 0 2 0 0 0 0 31 30 0 7 1

GFSCGP_con_mucape_285.txt.gz
CAPE
0 4 30 0 0 0 0 1 26 39 0 0 9 0 1 26 47 73 548 950 1249 1268 1671 1946 1857 1450 1349 1374 1620 1715 1870 1781 1620 1193 1066 1260 1488 1542 1773 1277 445 170 52 0
1 0 8 0 0 0 4 45 8 18 3 0 1 2 21 0 105 259 529 875 1197 1386 1482 1813 1975 1709 1592 1596 1663 1616 1615 1800 2011 1372 1521 1711 1839 1180 974 642 289 279 192 133
8 2 0 0 0 11 11 24 2 0 0 0 13 32 30 29 338 479 645 934 1046 1019 736 1011 1497 1778 1760 1830 1792 1787 1844 1875 2108 1858 1665 1910 1782 1748 930 1052 416 166 134 43
8 0 0 0 38 8 60 0 0 0 0 57 0 38 114 35 74 160 391 378 269 208 187 336 659 1101 1577 1650 1607 1731 1884 1968 2075 2189 1797 1773 1825 1264 562 368 121 237 124 11
17 0 0 15 22 0 6 0 0 0 6 13 12 0 141 74 147 81 118 105 111 128 191 162 526 663 590 1005 1090 1598 1968 2269 2185 1993 2004 1702 1151 433 151 77 693 1075 859 2
12 0 0 27 0 0 0 16 34 25 58 73 17 0 149 18 29 135 100 71 106 105 100 177 365 427 492 501 594 1161 1998 2294 2199 2069 1878 1449 993 645 421 439 254 56 21 0
0 0 0 0 7 73 48 50 89 75 38 57 0 0 100 4 0 0 0 15 78 151 158 171 224 310 433 369 528 792 1378 1806 2066 1639 1014 709 582 626 584 198 79 124 19 2
48 40 0 0 0 49 106 98 66 64 87 39 14 38 61 0 0 0 0 0 7 42 112 225 270 409 267 366 778 989 735 969 930 837 607 487 584 376 176 297 205 114 28 6
71 90 4 0 1 7 136 119 83 280 153 88 81 90 116 8 25 31 35 50 65 80 218 273 294 399 363 468 689 811 366 520 519 544 482 529 403 385 307 267 240 88 21 1
130 129 36 0 1 36 163 15 168 59 102 105 40 112 4 19 21 2 0 38 84 175 235 298 348 374 579 499 473 371 334 249 283 391 338 348 462 54 163 208 168 27 27 4
88 108 112 41 96 184 161 93 106 114 151 119 122 115 59 12 16 28 34 26 40 162 226 230 204 231 461 322 220 244 235 283 269 207 326 30 45 155 272 179 42 4 19 44
167 322 318 27 152 58 34 100 84 122 63 67 148 119 85 48 24 58 43 138 197 129 118 143 144 219 208 189 300 402 425 297 265 153 22 62 51 204 255 53 1 0 67 87
289 111 223 252 228 151 4 65 95 152 320 170 211 141 22 67 60 180 151 122 149 83 142 180 216 184 167 482 366 349 461 454 137 18 3 0 226 163 43 2 0 46 90 95
311 409 289 176 173 293 192 125 98 124 236 129 118 75 82 177 132 140 159 175 158 178 164 164 156 216 224 443 679 523 473 226 70 6 35 116 50 16 0 6 69 120 48 2
948 522 319 199 122 88 123 146 123 137 134 72 71 79 135 213 126 147 191 167 163 219 201 185 247 353 422 513 223 4 48 272 78 66 75 20 1 4 16 49 59 7 16 21
679 635 438 262 195 167 186 156 71 89 60 68 107 93 76 149 165 247 238 117 142 116 107 176 275 321 326 309 71 27 143 105 58 25 7 0 0 27 42 32 67 81 93 100
558 424 434 283 283 306 226 75 106 29 40 97 111 102 100 226 308 303 204 238 323 414 358 309 182 63 97 261 4 52 37 6 6 4 0 4 3 17 23 46 54 14 70 88
363 376 278 240 229 202 167 118 40 31 47 79 123 88 178 210 313 382 210 232 414 292 205 63 8 0 11 3 0 64 3 8 8 0 0 4 8 25 23 45 30 24 0 24
561 414 202 342 177 78 106 224 196 234 258 49 206 123 128 260 386 466 90 195 199 79 12 0 0 0 28 117 89 35 11 13 0 0 15 0 25 14 31 30 23 29 39 65
335 477 230 85 113 219 359 207 194 63 22 301 330 310 335 353 305 425 315 230 43 5 0 0 0 0 53 187 51 16 19 0 0 22 0 19 25 20 31 42 42 80 96 161
366 263 273 194 191 149 155 86 14 9 537 577 488 506 518 692 659 533 358 90 20 0 0 0 0 5 132 47 12 12 9 0 6 0 0 19 15 26 53 29 48 95 111 116
330 239 272 139 95 78 154 34 70 1079 719 635 589 615 624 468 398 270 48 32 1 0 0 0 0 12 113 5 23 9 0 0 23 0 11 20 16 28 38 60 59 80 98 82
198 163 275 46 49 51 31 160 339 728 633 661 558 483 391 295 129 10 1 0 2 0 0 0 1 26 30 7 10 7 0 10 0 0 7 12 13 27 21 56 70 117 110 77
92 96 2 0 0 1 46 22 362 674 616 502 563 391 163 30 2 0 0 1 1 0 0 0 5 26 22 12 10 0 0 20 0 4 8 17 29 49 42 51 66 49 107 138
102 133 64 26 21 8 16 14 292 642 421 271 256 118 0 0 0 0 1 1 0 0 0 1 11 39 14 16 6 0 0 8 0 11 22 33 44 61 76 50 23 47 0 1
30 57 40 51 27 0 30 75 333 159 206 289 115 0 0 0 0 0 0 0 0 0 2 3 10 21 18 16 6 0 18 6 0 60 35 17 50 22 32 72 43 0 0 0

GFSCGP_con_mucape_291.txt.gz
CAPE
0 0 0 0 0 0 0 26 17 0 0 0 4 0 9 7 4 11 53 170 627 676 651 653 217 1110 1835 1938 2007 1707 1972 1658 1525 1237 848 1048 970 697 678 466 546 585 266 24
0 0 0 2 0 0 0 7 2 12 7 0 0 10 62 148 211 218 207 716 742 852 675 584 1091 1188 1113 1098 1388 1844 1944 1967 1802 1635 1515 1684 1466 1224 1078 929 644 591 130 187
0 0 0 0 0 0 1 0 5 0 0 0 3 88 65 106 208 99 168 368 1004 788 942 339 594 17 483 88 1 0 1749 2311 2274 2073 1630 2009 1884 1840 1272 572 486 569 244 139
0 0 0 0 0 0 0 0 0 0 0 0 3 65 38 26 25 1 38 214 663 921 514 513 135 27 125 97 13 0 1941 2009 2142 1943 1952 1947 1583 1316 727 352 329 153 98 90
1 1 0 0 0 0 0 6 1 13 0 11 7 8 99 3 2 17 15 54 85 810 987 703 324 538 80 33 408 918 32 1799 2309 2181 1919 1657 1555 972 701 437 212 158 105 57
0 0 0 0 0 0 0 46 61 62 0 9 1 4 0 2 7 16 6 0 0 163 332 313 103 57 49 22 138 372 480 1745 1946 1851 1807 1888 1566 937 600 428 296 133 98 120
4 0 0 0 0 1 14 32 13 0 9 4 1 1 2 0 0 0 0 0 4 48 73 32 55 0 6 3 0 881 1045 1792 1983 1781 1644 1620 930 613 404 60 40 39 53 31
16 13 4 4 0 0 36 1 12 37 107 36 13 0 0 0 0 0 0 18 61 235 141 91 40 0 0 0 16 271 1032 1012 1756 1402 776 436 355 306 219 188 169 92 36 23
9 49 36 6 9 18 90 98 17 32 134 80 0 0 0 0 1 0 2 38 18 37 131 67 31 55 20 52 146 173 34 151 302 415 333 321 276 220 186 109 47 40 10 4
32 88 5 64 83 13 0 51 94 36 10 2 2 0 0 0 22 4 9 29 48 79 127 109 50 85 166 91 34 85 111 159 210 237 264 270 212 0 0 0 0 8 5 5
29 119 145 67 18 51 64 26 96 99 17 0 11 10 0 0 52 22 3 3 0 14 89 25 144 183 145 80 63 35 43 33 2 0 0 0 0 0 0 4 3 0 4 13
403 274 34 57 33 27 7 101 55 39 41 75 61 28 12 37 11 27 29 0 0 69 83 42 47 181 38 1 0 29 35 7 0 0 0 0 0 0 0 0 0 0 0 0
503 227 51 18 179 3 0 1 0 18 143 136 32 55 116 10 16 13 44 47 169 53 79 46 2 2 63 0 0 4 4 0 0 0 0 0 0 0 0 0 0 0 0 0
424 114 190 157 21 5 3 45 17 17 98 13 25 40 89 30 30 36 38 177 30 71 27 24 28 0 3 0 2 0 0 0 0 0 0 0 0 0 0 0 0 0 0 0
689 369 397 36 24 33 100 43 65 36 21 9 1 39 57 8 35 24 34 41 76 66 39 18 0 0 0 0 0 0 0 0 0 0 0 0 0 0 0 0 1 0 0 0
401 461 445 453 127 119 35 16 0 50 24 1 24 35 2 4 2 32 82 89 72 50 0 0 0 0 0 0 0 0 4 5 5 2 0 1 0 0 0 0 0 0 0 0
702 427 307 293 154 166 78 3 46 54 56 22 19 24 49 42 27 42 53 34 33 0 0 0 0 0 0 0 0 1 7 3 6 1 0 0 0 0 0 1 0 0 0 0
305 369 257 177 173 69 386 207 161 64 155 191 154 210 97 40 42 65 21 5 3 0 0 0 0 0 0 0 0 1 2 3 0 1 0 1 0 1 7 3 4 0 0 2
47 265 281 374 216 132 152 198 113 57 224 178 138 133 208 131 190 102 19 0 0 0 0 0 0 0 0 0 0 3 2 2 2 0 0 3 2 6 1 2 0 0 8 14
228 188 199 77 36 189 137 328 374 250 289 188 287 381 199 202 141 45 0 0 0 0 0 0 0 0 1 0 0 1 3 1 1 0 5 4 0 0 1 0 5 9 19 26
207 66 4 8 11 85 59 128 245 246 284 271 409 252 212 89 115 10 0 0 0 0 0 0 0 0 3 1 0 2 2 7 1 0 2 6 0 0 0 5 5 2 10 10
337 125 23 0 1 3 84 113 360 798 367 132 324 218 151 106 15 0 0 0 0 0 0 0 0 1 5 0 3 5 8 10 0 0 5 0 6 1 8 4 9 0 4 8
303 221 160 106 7 14 20 21 339 107 231 654 283 223 109 13 0 0 0 0 0 0 0 0 2 0 4 2 3 0 10 3 0 0 16 17 14 13 6 2 2 2 4 0
166 230 15 0 1 63 98 122 413 158 386 364 178 81 0 0 0 0 0 0 0 0 0 0 0 7 4 3 2 0 0 0 0 9 16 19 0 0 15 0 0 0 0 0
29 10 2 0 0 25 136 342 424 248 213 139 70 31 0 0 0 0 0 0 0 0 0 0 0 12 9 3 1 0 0 0 0 5 0 0 11 5 6 0 0 0 0 0
50 0 2 1 0 10 99 306 395 221 98 47 87 48 0 0 0 0 0 0 0 0 0 0 0 4 8 2 7 0 0 0 0 7 3 13 17 7 2 0 0 0 0 0